Showing default

BANE, 58465

Orbit data source: Space-Track

BANE, 58465 is a payload satellite owned by York Space Sys (US) in SSO that was launched on Fri, 01 Dec 2023 UTC via an FALCON 9 launch vehicle from the Air Force Western Test Range (AFWTR). Payload-class satellites include a variety of spacecraft equipped with specific instruments for various scientific and technological missions. These include communications satellites like Starlink; space stations such as the ISS; scientific satellites like the Hubble; Earth observation satellites from companies like Planet Labs, Umbra, and HawkEye 360; GPS; miniature CubeSats for education and research; and military/defense satellites.

Loading next visibility...
Identifier
58465, 2023-185D
Orbit
SSO
Country
Flag of USUS
Related business
Manufacturer
York Space Sys
Mission
Operational Commercial Technology
Bus & Motor
S-CLASS, Unknown motor
Mass
~150 kg wet, ~150 kg dry
Launch date (UTC)
2023-12-01 (2 years ago)
Launch vehicle
FALCON 9
Launch site
Air Force Western Test Range (AFWTR)
Object type
Payload
Rocket body
Debris
Shape & HBR
Box + 4 Pan, 1.0 m
Radar Cross Section
1.244 m², Medium (>0.1 m² and < 1m²)

Expand to show TLE details & history
Last TLE update: 16 hours ago

TLE from 16 hours ago
0 BANE
1 58465U 23185D   25261.29077848  .00029535  00000-0  61373-3 0  9995
2 58465  97.3720 333.7267 0006989  99.0438 261.1602 15.45596919100298
Epoch: 2025-09-18T06:58Z
TLE epoch observation values (Epoch: 2025-09-18T06:58:43.26Z)
Latitude
-0.00006°
Longitude
-128.40803°
Altitude
433.485 km
Speed
7.651 km/s
True Right ascension
22h 14m 54s
True Declination
0° 00' 00"
Sunlit
Object was in full shadow at epoch
Visualization orbit readout
Latitude
Unknown
Longitude
Unknown
Altitude
Unknown
Speed
Unknown
Apparent Right ascension
Unknown
Apparent Declination
Unknown
Sunlit
N/A
Visualization observer readout
Local Sidereal Time
15:24:34
Azimuth
Unknown
Elevation
Unknown
Doppler factor
Unknown
Orbital elements
Apogee altitude
431.311 km
Perigee altitude
421.799 km
Semi-major axis
6,804.692 km
Eccentricity
0.0007
Inclination
97.372°
RAAN
333.7267°
Arg. of periapsis
99.0438°
True anomaly
261.08107°
Mean anomaly
261.1602°
Eccentric anomaly
261.12064°
Mean motion
3.86661 °/min
Orbital period
93.1 mins
BSTAR
0.00061373
Loading maneuver chart data...
Computing Atmospheric mass density...
Loading historical data...
Loading historical data...
Loading historical data...
Loading historical data...
Loading historical data...
Loading historical data...
Loading historical data...

Documentation

Showing up to 5 results
|